Temp
53 53 53 53 52 52 51 47 35 48 50 38 38 33 40 44 44 47 44 43 42 40 40 38 39 39 45 54 52 44 48 40 31 40 51 53 47 41 40 27 28 33 33 35
52 52 52 52 52 53 53 43 41 47 46 31 33 38 41 43 41 43 42 40 43 45 40 34 40 43 50 52 48 44 48 39 31 36 44 50 44 45 44 38 34 30 28 33
52 52 52 52 51 51 49 38 32 36 39 40 38 34 35 35 42 41 42 42 43 40 36 41 35 40 46 48 47 46 45 39 36 30 38 45 38 35 39 35 27 30 31 37
52 52 52 51 50 50 49 39 35 42 31 33 35 35 34 33 31 39 40 36 38 35 28 34 34 37 38 43 44 42 38 31 38 41 43 44 42 41 42 37 40 33 38 39
51 52 51 51 50 50 45 33 35 41 39 38 35 34 34 34 36 35 35 33 37 37 30 34 30 34 36 35 40 37 39 30 36 34 42 42 38 42 43 43 43 43 43 43
51 51 51 50 50 50 36 42 45 44 35 33 32 35 37 36 37 40 41 39 37 34 37 42 42 42 41 38 34 34 31 29 29 27 40 38 29 38 41 40 45 44 38 46
51 50 50 50 49 50 49 48 47 38 31 34 35 36 37 37 38 35 40 41 36 42 48 46 43 42 41 40 40 40 33 31 30 26 33 20 41 52 51 46 47 50 49 50
50 49 49 49 48 47 51 47 46 40 32 38 36 35 35 38 39 37 37 40 45 47 41 31 28 31 32 36 41 38 39 35 28 24 27 36 41 46 43 42 42 51 50 52
49 49 49 49 48 47 51 49 51 43 36 35 40 36 38 33 34 35 37 44 47 43 35 29 22 23 30 30 36 44 39 37 30 29 21 20 40 51 55 51 35 53 52 51
49 49 49 49 49 48 50 47 50 44 34 42 40 35 34 38 34 32 36 36 38 41 30 27 27 26 35 24 29 32 32 29 24 27 25 34 48 49 51 31 37 54 53 52
48 48 48 49 48 48 49 45 48 44 37 42 42 43 38 38 36 30 35 34 35 31 26 29 27 29 33 31 36 33 31 29 27 28 24 22 51 49 40 48 52 53 53 53
48 48 48 48 48 48 49 43 48 48 38 40 47 47 49 47 45 38 34 33 32 35 31 32 32 30 32 32 26 40 29 38 33 33 31 40 46 49 51 54 51 52 52 53
47 47 47 48 48 48 48 46 44 41 34 36 40 41 49 51 48 50 32 38 39 36 36 32 32 28 36 28 32 32 36 38 35 38 43 45 46 50 53 54 54 54 55 54
47 47 47 47 48 48 47 45 43 43 37 29 38 50 45 52 51 48 46 44 45 40 37 31 32 30 40 34 36 34 38 39 33 34 42 46 47 49 52 52 53 53 53 53
47 47 47 47 48 48 45 42 42 44 38 31 34 44 48 48 48 46 46 43 38 35 32 30 31 38 38 40 40 34 42 38 34 33 42 42 46 50 51 49 49 51 51 50
47 47 47 47 46 46 46 33 45 46 39 35 28 45 43 45 44 42 42 43 38 34 34 33 38 43 37 32 32 42 45 47 47 42 48 47 47 49 51 50 51 51 50 51
46 47 46 45 44 48 40 40 46 45 42 33 31 33 44 42 43 44 43 43 39 36 34 34 38 40 37 33 30 41 46 48 47 48 47 42 45 42 49 50 52 51 52 52
46 46 46 46 45 44 43 49 45 45 43 39 27 29 34 42 38 37 45 38 38 38 38 41 38 41 36 29 40 45 47 46 45 46 48 46 47 47 47 49 50 48 48 49
46 45 43 46 42 36 44 43 44 45 40 31 30 28 27 42 39 38 37 38 30 40 31 34 38 34 28 37 41 43 44 40 40 43 42 42 40 43 45 47 47 46 46 48
43 45 37 32 42 42 42 37 33 32 34 34 29 38 29 38 37 34 34 33 32 27 35 40 30 33 41 41 41 42 37 38 40 34 34 36 35 38 42 45 48 47 47 47
44 35 35 44 43 40 34 30 30 33 28 34 34 35 31 37 29 31 38 32 34 26 33 31 31 29 35 37 35 35 35 37 38 37 36 37 39 41 42 44 46 46 46 45
43 43 43 43 35 31 28 28 31 29 29 37 33 32 35 35 40 33 35 30 32 24 37 29 28 37 39 35 34 35 37 36 39 39 37 36 35 37 39 41 42 43 42 36
45 39 31 30 32 25 23 22 25 26 31 33 32 29 32 32 33 32 31 26 27 37 28 29 35 41 37 35 38 39 40 39 36 35 37 35 34 34 34 35 37 35 36 36
34 29 24 27 26 29 32 34 36 39 35 33 33 32 30 32 29 31 25 32 32 26 25 28 39 39 39 39 38 37 35 34 33 32 33 33 32 32 33 33 34 34 35 34
30 31 25 28 35 36 36 38 38 40 40 34 32 32 33 30 28 32 30 26 25 29 30 38 38 35 35 36 35 34 31 31 31 32 31 31 31 31 31 32 33 35 33 33
32 31 29 34 31 32 33 34 34 42 37 36 34 31 29 29 32 28 27 25 25 33 37 39 40 35 34 33 32 31 31 31 31 31 31 31 31 30 30 31 32 31 32 32
30 30 35 34 34 33 34 37 38 41 34 31 32 28 28 36 30 29 35 30 36 39 39 39 37 33 31 31 30 30 31 30 30 30 30 30 31 31 30 28 28 30 30 31
MSLP
1010.43 1010.83 1011.14 1012.60 1012.74 1014.12 1014.82 1015.03 1015.60 1016.85 1017.46 1017.54 1016.86 1016.30 1015.83 1016.22 1015.66 1015.51 1015.72 1015.49 1014.61 1014.70 1014.79 1014.38 1014.05 1013.38 1012.48 1011.82 1012.34 1012.34 1012.07 1011.53 1011.02 1009.97 1009.19 1008.43 1009.49 1009.27 1009.32 1009.89 1008.72 1007.86 1006.71 1005.19
1010.40 1010.92 1011.62 1012.47 1012.79 1013.75 1014.37 1015.49 1015.90 1017.51 1017.20 1017.44 1016.92 1016.44 1016.22 1016.28 1016.28 1015.79 1015.74 1015.60 1015.31 1015.00 1015.35 1014.79 1014.06 1013.81 1013.73 1013.08 1012.95 1012.74 1012.35 1011.35 1010.17 1009.52 1008.67 1008.11 1007.99 1008.23 1008.60 1009.28 1009.23 1007.96 1007.20 1006.38
1010.72 1011.15 1011.79 1012.57 1013.13 1013.75 1014.76 1016.10 1016.69 1017.97 1017.46 1016.76 1016.72 1016.97 1016.49 1016.69 1016.87 1016.44 1016.39 1015.93 1016.08 1015.71 1015.79 1015.27 1014.77 1014.19 1013.99 1013.68 1013.76 1013.81 1013.34 1011.54 1010.64 1009.02 1007.72 1007.43 1007.47 1008.56 1008.78 1009.15 1008.38 1007.79 1007.20 1006.45
1010.90 1011.42 1012.13 1012.76 1013.38 1013.90 1014.67 1015.99 1015.91 1016.05 1017.16 1016.79 1017.13 1017.74 1017.28 1016.95 1017.23 1017.21 1016.97 1016.86 1016.58 1016.19 1016.43 1015.44 1015.07 1015.03 1015.32 1014.70 1014.17 1013.96 1013.60 1011.66 1010.40 1009.42 1008.52 1007.82 1007.41 1007.38 1007.44 1007.38 1006.95 1006.61 1005.68 1005.33
1011.32 1011.63 1012.20 1012.97 1013.65 1014.04 1014.93 1015.81 1015.85 1016.71 1016.18 1016.94 1017.11 1017.51 1016.99 1016.86 1017.12 1017.03 1016.57 1016.76 1016.76 1016.54 1016.39 1016.25 1015.31 1015.94 1015.39 1015.06 1014.52 1014.32 1014.07 1011.93 1010.81 1009.30 1008.29 1007.57 1006.92 1006.73 1006.34 1006.04 1005.78 1005.19 1004.81 1003.90
1011.52 1011.83 1012.40 1013.36 1013.86 1014.14 1015.51 1016.12 1016.28 1015.77 1016.58 1017.29 1017.45 1017.01 1016.50 1016.69 1016.99 1016.53 1016.72 1016.63 1016.55 1016.38 1016.05 1015.79 1015.69 1015.55 1015.46 1015.09 1014.60 1013.94 1014.06 1012.69 1010.77 1008.14 1007.27 1006.72 1005.88 1004.89 1004.88 1004.63 1004.46 1004.18 1003.54 1003.13
1011.82 1012.12 1012.73 1013.65 1014.04 1014.34 1014.58 1015.42 1015.68 1015.90 1016.16 1016.69 1016.83 1016.87 1016.70 1016.63 1016.52 1016.44 1016.48 1016.49 1016.56 1016.45 1016.22 1015.90 1015.60 1015.15 1014.42 1013.89 1013.09 1013.04 1012.53 1012.22 1011.36 1008.94 1007.22 1005.31 1003.75 1003.42 1003.04 1002.80 1002.78 1002.69 1002.60 1002.72
1012.09 1012.47 1013.24 1013.84 1014.51 1014.85 1014.77 1015.86 1015.58 1015.89 1015.88 1015.85 1016.06 1016.53 1016.79 1016.67 1016.52 1016.59 1016.54 1016.33 1016.16 1016.30 1016.16 1015.67 1014.68 1013.37 1012.52 1011.23 1010.52 1010.98 1011.39 1010.81 1010.32 1008.97 1006.96 1004.70 1003.31 1002.75 1002.96 1002.47 1002.09 1001.97 1001.82 1001.98
1012.67 1012.91 1013.52 1014.25 1014.72 1015.01 1015.37 1015.70 1015.79 1016.12 1015.95 1015.54 1015.94 1016.50 1016.46 1016.44 1016.38 1016.22 1016.10 1016.16 1016.01 1015.93 1015.64 1015.21 1013.64 1011.97 1010.78 1009.21 1008.20 1008.25 1009.33 1010.24 1009.88 1008.36 1006.80 1004.23 1002.25 1001.68 1001.71 1002.49 1001.28 1001.11 1001.48 1001.74
1012.95 1013.06 1013.84 1014.18 1014.67 1015.22 1015.19 1015.77 1015.93 1016.34 1016.46 1015.98 1016.26 1016.34 1016.08 1016.34 1016.37 1016.09 1015.87 1015.88 1015.27 1015.25 1014.90 1013.92 1012.72 1011.31 1010.16 1009.24 1007.82 1007.30 1007.74 1008.23 1008.08 1007.28 1005.75 1003.83 1002.27 1002.28 1002.45 1002.21 1001.06 1000.32 1001.32 1001.86
1012.92 1013.51 1013.92 1014.24 1014.79 1015.27 1015.40 1015.85 1016.50 1016.38 1016.24 1015.80 1016.11 1015.96 1015.74 1015.74 1016.03 1015.87 1015.74 1015.83 1014.84 1015.13 1014.50 1013.10 1012.32 1011.05 1009.84 1008.92 1007.73 1006.99 1006.90 1006.43 1006.62 1006.03 1005.05 1003.44 1002.26 1002.26 1001.90 1001.03 1001.19 1001.29 1001.73 1002.11
1013.50 1013.84 1014.22 1014.55 1014.85 1015.28 1015.55 1015.87 1016.47 1016.58 1016.69 1015.85 1015.56 1015.31 1015.13 1015.10 1015.14 1015.50 1015.72 1015.41 1015.13 1014.75 1014.14 1013.22 1012.38 1011.04 1010.14 1008.91 1007.20 1006.68 1006.55 1006.06 1005.27 1004.81 1003.83 1003.74 1003.51 1002.18 1002.00 1001.98 1001.80 1001.85 1002.27 1002.80
1013.74 1013.96 1014.23 1014.53 1014.87 1015.23 1015.47 1015.62 1016.47 1016.87 1016.80 1015.92 1015.02 1014.16 1013.97 1014.26 1014.40 1014.73 1015.30 1014.50 1014.67 1014.62 1014.95 1014.25 1012.79 1011.21 1010.08 1008.63 1007.44 1007.26 1006.92 1007.08 1005.50 1004.57 1003.40 1003.23 1003.25 1002.80 1002.30 1002.11 1001.95 1002.34 1002.54 1002.77
1013.85 1014.06 1014.27 1014.48 1014.70 1014.96 1015.43 1015.64 1016.32 1016.35 1016.49 1015.68 1013.73 1013.48 1013.37 1013.09 1013.41 1013.83 1013.98 1013.72 1013.94 1014.33 1014.41 1013.83 1012.45 1011.04 1009.78 1008.55 1007.97 1007.39 1006.86 1006.43 1005.75 1004.88 1003.95 1003.31 1003.07 1002.80 1002.44 1002.56 1002.64 1002.75 1002.85 1003.01
1013.99 1014.20 1014.35 1014.46 1014.57 1014.85 1015.66 1016.16 1016.47 1016.35 1016.53 1015.41 1014.02 1013.37 1012.34 1012.70 1012.77 1012.84 1013.06 1013.42 1013.77 1013.93 1013.67 1013.00 1011.62 1010.42 1009.69 1008.18 1007.15 1006.07 1005.81 1005.17 1004.82 1004.09 1003.86 1003.86 1003.02 1002.91 1003.00 1003.16 1002.97 1003.00 1003.13 1003.21
1014.27 1014.39 1014.44 1014.54 1014.88 1015.20 1015.57 1016.30 1016.20 1016.34 1016.73 1015.99 1014.31 1012.85 1012.17 1012.20 1012.31 1012.36 1012.46 1012.63 1013.27 1013.46 1012.85 1012.07 1010.67 1010.11 1009.81 1007.97 1005.86 1004.91 1004.99 1004.83 1004.68 1004.11 1003.89 1003.75 1003.81 1003.83 1003.64 1003.22 1003.06 1003.17 1003.33 1003.26
1014.48 1014.63 1014.83 1015.08 1015.35 1015.25 1015.54 1015.60 1015.32 1015.93 1016.47 1015.90 1014.26 1012.59 1011.86 1012.01 1011.79 1011.57 1011.75 1012.03 1012.22 1012.56 1012.04 1010.93 1009.93 1009.16 1009.25 1007.69 1005.65 1003.04 1004.50 1004.18 1004.06 1004.11 1004.01 1003.64 1003.64 1003.38 1003.26 1002.96 1002.93 1003.01 1003.17 1003.17
1014.78 1014.98 1015.14 1015.28 1015.43 1015.55 1015.34 1015.25 1015.78 1015.88 1015.57 1015.61 1014.71 1013.05 1012.12 1011.84 1011.10 1010.82 1011.10 1011.13 1011.56 1011.02 1010.20 1008.94 1008.51 1007.90 1007.96 1006.39 1004.18 1003.96 1003.79 1003.97 1004.00 1003.88 1003.77 1003.52 1003.39 1003.24 1002.96 1002.87 1002.70 1002.58 1002.58 1002.75
1014.93 1015.17 1015.36 1015.41 1015.44 1015.41 1015.11 1015.70 1015.76 1015.77 1015.90 1014.96 1014.17 1012.72 1011.60 1011.73 1011.03 1011.09 1011.09 1010.81 1010.20 1009.57 1009.24 1008.39 1007.87 1006.93 1006.10 1004.58 1004.31 1004.11 1004.13 1004.43 1004.48 1004.18 1004.06 1003.80 1003.50 1002.94 1002.46 1002.21 1002.04 1002.01 1002.02 1002.22
1015.16 1015.15 1015.26 1015.17 1015.22 1015.59 1015.71 1015.74 1015.59 1015.67 1015.20 1014.92 1013.29 1012.52 1011.83 1011.83 1011.20 1010.74 1010.65 1010.44 1009.53 1008.56 1007.58 1007.69 1007.19 1005.58 1004.88 1004.79 1005.01 1004.84 1005.18 1005.11 1004.79 1004.52 1004.14 1003.93 1003.37 1002.72 1002.19 1001.82 1001.68 1001.65 1001.72 1001.98
1014.96 1015.06 1014.95 1015.06 1015.40 1015.35 1015.20 1014.70 1014.47 1014.06 1013.79 1013.01 1012.15 1011.76 1011.56 1011.87 1011.23 1010.62 1010.24 1009.51 1008.81 1007.80 1006.91 1006.88 1005.48 1004.65 1004.41 1004.86 1005.24 1005.43 1005.49 1005.40 1005.02 1004.87 1004.52 1004.24 1003.57 1002.82 1002.26 1001.89 1001.73 1001.66 1001.65 1001.81
1014.99 1015.04 1015.19 1015.07 1014.96 1014.76 1014.40 1013.68 1013.34 1012.95 1011.76 1011.30 1011.37 1011.58 1011.47 1011.15 1010.99 1010.46 1009.86 1009.23 1008.51 1007.18 1006.97 1006.34 1004.54 1003.62 1004.25 1005.00 1005.35 1005.56 1005.53 1005.47 1004.97 1004.69 1004.39 1004.20 1003.87 1003.41 1002.98 1002.54 1002.16 1001.95 1001.90 1002.31
1014.92 1014.91 1014.98 1014.70 1014.16 1013.64 1012.91 1012.05 1011.67 1011.34 1011.18 1010.93 1011.13 1011.34 1011.12 1011.19 1011.05 1010.25 1009.64 1008.68 1007.51 1007.04 1006.13 1004.70 1003.54 1003.49 1004.36 1004.99 1005.11 1005.19 1005.24 1005.24 1005.14 1004.83 1004.44 1004.25 1003.90 1003.51 1003.15 1002.75 1002.49 1002.72 1002.69 1002.78
1014.82 1014.66 1014.17 1013.52 1012.51 1011.79 1010.70 1010.10 1009.52 1009.56 1010.00 1010.32 1010.28 1010.21 1010.31 1010.24 1010.15 1009.56 1008.68 1007.68 1007.25 1005.78 1004.81 1003.65 1003.21 1003.83 1004.45 1004.96 1005.28 1005.40 1005.30 1005.35 1005.17 1004.88 1004.54 1004.23 1003.88 1003.40 1002.95 1002.61 1002.36 1002.36 1002.50 1002.81
1014.76 1014.19 1012.89 1011.68 1010.89 1010.45 1010.17 1009.90 1009.59 1009.16 1009.34 1009.67 1009.47 1009.45 1009.53 1009.14 1008.93 1008.45 1007.81 1006.96 1005.67 1004.57 1003.48 1003.16 1003.87 1004.56 1005.00 1005.22 1005.47 1005.58 1005.61 1005.38 1005.12 1004.89 1004.57 1004.26 1003.92 1003.48 1003.00 1002.56 1002.08 1002.06 1002.43 1002.89
1014.32 1013.21 1011.79 1010.87 1010.70 1009.86 1009.66 1009.40 1009.00 1008.77 1009.01 1009.15 1009.02 1008.47 1008.20 1007.74 1007.34 1006.89 1006.18 1005.65 1004.44 1003.52 1003.50 1003.88 1004.42 1004.97 1005.41 1005.65 1005.83 1005.87 1005.72 1005.49 1005.23 1005.02 1004.76 1004.44 1004.10 1003.78 1003.44 1003.15 1002.81 1002.77 1002.93 1003.24
1012.50 1011.22 1010.65 1010.29 1009.79 1009.28 1008.98 1008.96 1008.78 1008.89 1009.02 1008.45 1008.03 1007.34 1006.66 1006.41 1005.96 1005.26 1004.63 1004.18 1003.48 1003.81 1004.11 1004.59 1005.06 1005.58 1005.88 1006.04 1006.01 1005.91 1005.73 1005.51 1005.34 1005.15 1004.88 1004.57 1004.24 1003.97 1003.76 1003.64 1003.75 1003.67 1003.75 1003.95
Wind_Speed
17 18 19 19 21 15 4 3 4 3 2 3 2 4 4 1 6 2 3 4 7 10 10 11 14 15 16 13 19 18 9 6 10 18 21 17 17 21 15 7 5 4 7 3
19 19 19 20 20 11 5 3 5 3 1 5 5 3 5 6 7 8 6 8 8 7 13 14 14 18 18 17 18 13 15 12 17 23 22 24 19 21 16 15 10 15 11 3
19 19 19 19 16 12 6 4 5 0 1 2 5 7 7 7 1 5 7 10 10 11 13 14 10 18 13 10 19 21 15 16 23 18 18 12 6 6 8 11 4 9 9 16
20 20 19 18 16 12 5 1 3 2 5 5 5 4 3 6 2 2 3 3 8 5 5 12 15 7 9 11 15 7 6 14 20 23 23 23 21 21 19 19 20 18 21 20
18 18 19 19 15 11 4 5 4 2 5 5 6 6 7 8 8 5 7 10 11 10 13 16 19 18 18 17 15 10 11 11 15 23 25 25 25 24 26 27 26 26 24 24
15 17 19 18 14 6 3 1 2 3 7 7 6 7 9 6 2 7 10 10 12 14 15 14 16 16 17 18 19 19 10 7 11 23 25 23 19 28 23 23 25 22 23 22
15 16 17 18 13 5 4 3 4 3 5 8 8 6 6 9 9 13 13 12 15 11 9 14 17 21 24 25 26 22 19 19 14 11 15 16 16 18 21 21 21 21 21 20
15 15 15 16 12 9 4 4 3 4 4 6 6 8 9 10 11 13 14 15 17 13 10 9 11 11 11 19 28 25 23 20 12 13 14 19 21 12 12 14 16 17 18 16
13 13 12 14 14 11 5 4 3 2 1 5 7 7 9 9 9 10 9 8 9 8 6 6 11 13 19 11 11 20 24 21 15 15 16 18 21 20 18 12 18 15 12 13
12 12 11 13 15 11 5 4 3 3 3 5 7 7 5 4 4 6 7 5 5 5 5 10 13 14 18 10 19 15 11 12 18 18 17 16 15 1 6 14 8 11 13 12
13 11 10 10 14 13 6 4 5 4 3 6 9 10 12 8 7 7 1 6 5 5 7 6 3 7 4 9 17 20 19 13 11 18 17 16 7 10 18 7 5 9 10 9
11 10 9 10 12 14 8 3 4 4 4 5 5 11 16 19 18 10 4 6 3 3 4 3 4 8 4 12 9 11 10 16 14 9 4 7 12 11 14 9 5 7 10 8
8 8 7 7 9 14 11 4 5 2 1 6 10 13 14 15 18 15 7 9 9 5 4 4 4 7 4 7 8 6 3 9 9 12 14 13 11 14 10 10 9 10 9 7
8 6 5 5 7 10 13 4 4 2 0 4 4 2 9 6 12 16 20 17 8 7 2 4 5 6 5 8 13 15 12 7 7 11 17 12 11 11 11 10 6 8 6 7
7 6 5 4 4 10 6 3 1 1 3 4 6 13 13 4 13 14 16 16 14 6 4 5 8 9 8 10 11 11 10 12 9 8 6 9 10 7 5 10 9 7 8 7
9 9 7 9 17 13 4 2 5 6 2 4 4 4 7 4 5 9 12 11 9 4 4 5 7 12 6 7 11 14 13 13 13 14 16 12 13 13 13 11 10 7 5 4
9 9 10 11 10 3 1 3 3 7 4 3 5 5 1 3 3 4 5 8 6 6 4 8 12 12 7 9 18 25 17 19 17 16 17 17 17 14 13 13 13 9 9 9
7 6 5 5 5 1 3 2 10 8 2 2 4 5 4 3 3 3 2 4 6 7 7 6 8 8 5 9 19 18 13 11 11 13 15 16 14 15 15 15 15 15 15 15
7 8 6 2 1 1 2 1 6 5 4 3 4 4 4 2 2 2 3 3 5 3 5 6 5 8 9 14 14 14 12 9 16 15 15 16 17 19 19 17 17 17 17 16
7 2 1 1 1 2 1 2 4 4 4 4 6 5 7 3 3 2 3 3 4 4 5 2 5 8 16 15 14 11 7 9 11 13 12 11 13 12 15 16 14 13 13 13
2 1 1 2 2 2 2 2 4 3 4 6 5 7 8 4 5 4 3 3 3 4 2 4 3 4 7 8 8 2 4 9 10 12 12 13 13 12 10 10 11 11 11 12
2 2 1 2 3 3 4 3 3 5 4 3 3 2 4 2 4 4 3 4 3 6 2 4 4 1 1 4 2 4 6 9 12 11 11 10 10 10 11 11 10 9 3 3
1 1 1 3 3 6 5 5 4 4 3 4 5 5 3 4 4 4 3 5 5 2 4 4 4 1 2 4 5 6 8 10 10 11 10 9 10 9 8 10 9 7 5 5
2 3 4 5 5 6 6 6 5 3 5 6 7 5 5 4 6 3 5 4 3 4 4 5 1 3 1 4 5 8 10 11 10 10 10 10 9 9 8 8 8 7 9 6
4 4 5 7 6 5 4 5 6 7 4 3 3 4 4 4 4 4 4 5 5 5 4 1 3 1 3 5 7 7 8 8 8 8 8 9 9 8 6 6 4 6 5 8
4 7 6 5 5 7 5 6 8 6 4 2 3 3 4 6 4 6 7 4 6 3 2 3 2 3 5 6 6 7 8 8 8 7 8 8 7 6 4 5 5 4 5 7
7 6 7 8 8 8 7 6 6 1 2 4 3 5 7 3 4 5 5 5 4 1 2 3 3 4 6 6 7 6 7 7 7 7 7 7 6 3 3 5 6 6 6 6
Wind_Direction
146 144 141 147 144 138 91 132 109 62 229 184 149 196 189 247 219 217 227 268 257 261 274 277 274 267 253 302 309 292 275 282 270 272 286 272 257 265 260 240 286 268 290 255
143 142 144 146 144 156 138 111 99 55 269 200 201 166 236 256 217 227 222 250 242 267 268 279 261 264 276 286 287 283 293 258 265 266 254 246 243 252 252 240 232 245 256 197
142 141 140 143 137 119 91 117 129 132 259 12 257 215 231 236 29 273 277 267 278 270 264 261 263 274 284 297 296 291 290 263 253 262 273 279 231 237 247 235 267 284 266 291
145 144 143 139 133 122 99 71 129 131 177 176 172 158 174 194 228 205 219 234 245 247 302 291 278 277 301 298 329 319 275 255 246 251 261 270 270 266 269 267 264 263 281 272
147 146 144 140 132 98 80 134 142 173 137 115 161 188 206 224 208 236 255 248 284 293 267 263 289 296 281 274 287 307 305 266 254 255 258 258 264 266 265 264 266 267 270 271
150 151 146 144 137 91 117 132 102 195 146 166 186 207 231 243 246 241 261 284 279 266 262 272 273 267 268 258 267 272 273 273 288 238 244 252 256 249 255 256 255 255 258 265
140 141 147 150 139 97 116 113 133 180 176 192 213 199 238 255 263 273 279 277 269 267 289 294 274 261 258 254 254 247 244 261 275 285 263 238 248 257 250 250 253 253 251 253
131 134 146 149 134 123 104 134 162 177 208 221 211 238 255 275 272 263 267 267 265 285 281 272 259 252 252 249 243 239 234 239 258 266 264 265 267 237 242 240 247 243 244 245
131 134 143 159 149 126 122 137 109 96 199 217 237 254 256 258 265 269 258 263 267 250 246 233 257 269 281 273 272 217 225 230 244 242 255 255 259 252 225 242 262 253 232 222
134 140 155 161 166 159 164 117 137 136 205 213 197 221 241 213 234 264 279 271 272 212 229 248 262 272 280 264 270 273 225 209 226 237 246 258 265 193 180 201 252 177 197 193
119 126 134 150 167 160 154 128 190 192 214 253 214 228 231 236 231 249 231 293 190 231 232 250 236 269 315 282 283 271 270 244 236 230 248 251 232 188 214 246 158 167 190 183
131 136 144 153 158 169 174 162 182 216 233 273 275 255 253 244 245 259 191 264 285 281 290 290 301 286 282 295 305 347 261 265 268 267 281 2 329 222 234 277 205 182 185 182
142 145 156 172 181 173 191 175 146 163 265 269 248 247 249 232 238 237 238 227 228 224 240 281 286 274 283 290 315 292 282 326 285 281 245 250 227 252 262 243 230 187 193 207
136 146 164 184 196 186 183 174 174 199 123 274 276 274 252 237 217 218 217 243 268 258 244 262 263 273 240 289 299 288 284 269 247 266 275 273 272 255 241 232 214 202 191 186
123 127 128 142 164 164 121 96 188 256 267 307 302 296 273 264 234 236 227 231 241 245 242 238 260 281 287 271 272 268 254 244 252 273 288 268 275 334 264 240 217 208 203 204
113 105 101 121 126 132 144 186 181 199 137 289 284 314 262 267 238 224 222 222 219 219 222 241 238 250 264 272 270 279 274 270 276 281 293 297 294 301 296 277 240 229 242 263
111 104 109 124 141 185 189 15 96 158 154 258 292 270 217 277 250 208 206 206 213 223 221 225 246 251 216 256 265 274 272 273 272 272 279 279 278 272 270 245 238 232 249 251
131 129 131 160 170 239 229 154 148 165 231 280 267 272 280 201 251 232 187 196 207 216 243 254 258 256 231 252 258 277 287 295 287 276 269 272 278 274 262 255 257 257 255 258
126 114 113 145 262 223 94 85 192 220 270 253 226 258 295 170 269 307 226 237 238 208 232 242 263 239 230 252 281 296 303 298 297 296 292 287 282 274 261 253 253 253 256 259
118 194 156 205 137 62 320 177 184 190 190 225 252 244 253 299 289 282 274 197 252 252 215 175 234 255 263 290 306 300 299 286 299 290 287 295 294 270 255 249 255 261 260 254
185 165 245 48 153 236 219 231 229 171 228 212 232 233 236 200 230 238 246 279 250 259 143 244 244 246 237 220 237 246 284 287 283 275 280 281 289 289 285 272 267 268 260 245
52 22 346 246 220 207 239 215 202 229 255 192 232 241 227 222 240 241 212 257 246 255 113 245 252 230 228 218 231 265 274 289 294 292 287 297 298 291 280 278 276 284 276 139
212 260 261 227 161 227 231 203 204 227 225 209 192 213 223 177 227 237 241 237 237 331 233 250 252 315 139 234 266 290 302 314 315 299 296 305 293 284 269 267 257 261 249 191
249 242 251 227 193 230 213 236 264 218 201 211 218 223 211 184 187 234 245 223 258 247 240 240 265 69 14 298 305 304 318 319 316 305 303 309 305 297 286 265 256 231 228 203
237 225 243 227 240 263 262 265 264 255 268 240 245 210 213 172 225 203 250 226 242 242 247 314 58 51 301 309 315 316 309 315 314 316 315 320 319 310 315 329 261 207 164 166
227 231 248 242 268 264 240 253 262 274 244 218 211 212 213 209 213 210 212 239 233 249 286 4 330 324 329 318 313 306 303 308 314 319 320 319 325 331 349 18 45 101 143 147
211 230 228 256 280 273 277 276 283 326 241 247 233 245 214 163 217 224 203 225 266 316 313 308 318 316 316 309 303 312 316 315 322 320 320 325 331 342 13 43 38 66 87 110